Location: Carbonear
(47.7333°N, 53.2500°W)
Time: 15:36:44
(UTC+00:00)

CUTE-I - Pass Details

Date: 01 December 2022
Orbit: 809 x 824 km, 98.7° (Epoch: 05 February)

Event Time Altitude Azimuth Distance (km) Brightness Sun altitude
Rises 20:06:19 0° 142° (SE) 3,323 ? -4.2°
Reaches altitude 10° 20:08:44 10° 136° (SE) 2,398 ? -4.6°
Maximum altitude 20:13:42 42° 67° (ENE) 1,151 ? -5.3°
Drops below altitude 10° 20:18:43 10° 358° (N) 2,423 ? -6.0°
Sets 20:21:10 0° 351° (N) 3,362 ? -6.4°
